TALLINN current weather conditions

sailwx.info

Wind from 210 at 8 knots

Air temperature 5.0° C
Visibility: greater than 2.3 NM
Dewpoint 5.0° C
Present weather: Drizzle. Mist.

Last reported at 2014-Dec-19 12:20 UTC.
Time now 2014-Dec-19 13:38 UTC

Location: N 59°24' E 024°49'.
View on Google Maps.

See reports from other nearby stations

  
Tides and Currents Weather Stations Pressure Air Temp Water Temp Dewpoint Dewpoint Depression Visibility Wind Speed Wind Dir Waves Ship Positions
date/time (UTC)wind fromknots sea level pressurealtimeterstation pressurevisibilityair tempwater tempwave heightnotes
2014-Dec-19 12:20 210 8 2.3 5.0 Drizzle. Mist.
2014-Dec-19 11:50 180 8 2.4 4.0 Light rain drizzle. Mist.
2014-Dec-19 10:50 190 8 4.9 4.0 Light drizzle.
2014-Dec-19 10:20 170 6 5.4 4.0
2014-Dec-19 09:50 180 7 5.4 4.0 Light rain.
2014-Dec-19 09:20 180 8 5.4 4.0 Light rain.
2014-Dec-19 08:50 180 7 5.4 3.0 Light rain.
2014-Dec-19 08:20 180 7 4.9 3.0 Light rain.
2014-Dec-19 07:50 180 7 4.3 3.0 Rain.
2014-Dec-19 07:20 170 8 5.4 3.0 Light rain.
2014-Dec-19 06:50 160 8 5.4 2.0 Light rain.
2014-Dec-19 06:20 170 9 4.9 3.0 Light rain.
2014-Dec-19 05:50 160 8 3.2 2.0 Light rain drizzle.
2014-Dec-19 05:20 160 8 3.8 2.0 Light rain drizzle.
2014-Dec-19 04:50 160 9 2.7 2.0 Drizzle rain.
2014-Dec-19 04:20 160 8 4.9 2.0 Light rain.
2014-Dec-19 03:50 160 9 4.9 2.0 Light rain.
2014-Dec-19 03:20 160 9 4.9 2.0 Light rain.
2014-Dec-19 02:50 160 9 5.4 3.0 Light rain.
2014-Dec-19 02:20 170 9 4.9 3.0 Light rain.
2014-Dec-19 01:50 170 10 4.9 3.0 Light rain.
2014-Dec-19 01:20 180 10 4.9 3.0 Light rain.
2014-Dec-19 00:50 180 10 5.4 3.0 Light drizzle.
2014-Dec-19 00:20 180 10 5.4 3.0
2014-Dec-18 23:50 180 8 4.3 3.0 Light rain drizzle.
2014-Dec-18 23:20 170 8 3.2 3.0 Light rain.
2014-Dec-18 22:50 170 7 2.4 2.0 Rain. Mist.
2014-Dec-18 22:20 180 8 2.4 2.0 Rain. Mist.
2014-Dec-18 21:50 200 9 5.4 3.0 Light rain.
2014-Dec-18 21:20 190 9 5.4 3.0 Light rain.
2014-Dec-18 20:50 190 9 4.9 3.0 Light drizzle.
2014-Dec-18 20:20 190 9 2.2 3.0 Drizzle. Mist.
2014-Dec-18 19:50 190 9 4.9 2.0 Light drizzle.
2014-Dec-18 19:20 190 9 2.7 3.0 Drizzle. Mist.
2014-Dec-18 18:50 190 8 2.7 2.0 Drizzle rain.
2014-Dec-18 18:20 170 7 2.6 1.0 Drizzle rain. Mist.
2014-Dec-18 17:50 170 8 3.8 1.0 Light snow.
2014-Dec-18 17:20 170 8 3.2 1.0 Snow rain.
2014-Dec-18 16:50 160 7 4.9 1.0 Light drizzle.
2014-Dec-18 16:20 170 9 3.8 1.0 Light snow.
2014-Dec-18 15:50 170 9 5.4 1.0
2014-Dec-18 15:20 170 7 4.9 1.0 Light snow.
2014-Dec-18 14:50 170 8 5.4 1.0
2014-Dec-18 14:20 170 7 5.4-0.0
2014-Dec-18 13:50 160 6 5.4-0.0
2014-Dec-18 13:20 180 6 5.4 1.0
2014-Dec-18 12:50 190 6 5.4 1.0
2014-Dec-18 12:20 190 6 5.4 1.0
2014-Dec-18 11:50 210 6 5.4 1.0
2014-Dec-18 11:20 210 6 5.4 1.0
2014-Dec-18 10:50 200 6 5.4 1.0
2014-Dec-18 10:20 210 7 5.4 1.0
2014-Dec-18 09:50 210 8 5.4 1.0
2014-Dec-18 09:20 210 7 5.4 1.0
2014-Dec-18 08:50 220 8 5.4 1.0
2014-Dec-18 08:20 220 10 5.4-0.0
2014-Dec-18 07:50 220 9 5.4 1.0
2014-Dec-18 07:20 230 9 5.4-0.0
2014-Dec-18 06:50 220 9 5.4-0.0
2014-Dec-18 06:20 220 8 5.4-0.0
2014-Dec-18 05:50 230 7 5.4-0.0
2014-Dec-18 05:20 240 6 5.4-0.0
2014-Dec-18 04:50 220 5 5.4-0.0
2014-Dec-18 04:20 230 6 5.4-0.0
2014-Dec-18 03:50 230 4 5.4 1.0
2014-Dec-18 03:20 250 6 5.4-0.0
2014-Dec-18 02:50 260 6 5.4 1.0
2014-Dec-18 02:20 230 5 5.4 1.0
2014-Dec-18 01:50 250 5 5.4 1.0
2014-Dec-18 01:20 250 5 5.4 1.0
2014-Dec-18 00:50 250 4 5.4 1.0
2014-Dec-18 00:20 250 6 5.4 1.0
2014-Dec-17 23:50 240 3 5.4 1.0
2014-Dec-17 23:20 260 6 4.9 1.0 Light rain.
2014-Dec-17 22:50 260 6 3.8 1.0 Light rain.
2014-Dec-17 22:20 260 7 5.4 1.0
2014-Dec-17 21:50 250 6 3.8 2.0 Light drizzle.
2014-Dec-17 21:20 250 6 2.2 2.0 Mist.
2014-Dec-17 20:50 230 5 1.9 2.0 Rain drizzle. Mist.
2014-Dec-17 20:20 230 5 3.2 1.0 Rain.
2014-Dec-17 19:50 230 7 5.4 2.0
2014-Dec-17 19:20 240 7 5.4 2.0
2014-Dec-17 18:50 220 9 5.4 2.0
2014-Dec-17 18:20 210 7 5.4 2.0
2014-Dec-17 17:50 180 4 5.4 1.0
2014-Dec-17 17:20 190 4 5.4 1.0
2014-Dec-17 16:50 190 4 5.4 1.0
2014-Dec-17 16:20 200 6 5.4 1.0
2014-Dec-17 15:50 200 8 5.4 1.0
2014-Dec-17 15:20 210 9 5.4 1.0
2014-Dec-17 14:50 210 8 5.4 1.0
2014-Dec-17 14:20 200 7 5.4 1.0
2014-Dec-17 13:50 190 5 5.4 1.0
2014-Dec-17 13:20 210 6 5.4 2.0